| time (UTC) | temp F | wind direction | speed MPH | gust MPH | rain 1hr in | rain 24hr in | rain mn in | humidity % | barometer mb |
| 20260506123017 | 65 | 225 | 1.0 | 7.0 | 0.00 | 0.00 | 0.00 | 60 | 1008.0 |
| 20260506120036 | 65 | 0.0 | 3.0 | 0.00 | 0.00 | 0.00 | 60 | 1008.5 | |
| 20260506113015 | 65 | 0.0 | 7.0 | 0.00 | 0.00 | 0.00 | 61 | 1008.0 | |
| 20260506110015 | 64 | 0.0 | 6.0 | 0.00 | 0.00 | 0.00 | 60 | 1007.9 | |
| 20260506103015 | 64 | 0.0 | 3.0 | 0.00 | 0.00 | 0.00 | 60 | 1007.7 | |
| 20260506100035 | 65 | 0.0 | 4.0 | 0.00 | 0.00 | 0.00 | 58 | 1007.6 | |
| 20260506093015 | 65 | 0.0 | 6.0 | 0.00 | 0.00 | 0.00 | 57 | 1007.7 | |
| 20260506090018 | 65 | 0.0 | 5.0 | 0.00 | 0.00 | 0.00 | 55 | 1007.8 | |
| 20260506083017 | 66 | 0.0 | 4.0 | 0.00 | 0.00 | 0.00 | 52 | 1007.9 | |
| 20260506073017 | 67 | 0.0 | 5.0 | 0.00 | 0.00 | 0.00 | 50 | 1008.0 | |
| 20260506043016 | 69 | 0.0 | 3.0 | 0.00 | 0.00 | 0.00 | 42 | 1008.7 | |
| 20260506040016 | 71 | 0.0 | 3.0 | 0.00 | 0.00 | 0.00 | 39 | 1008.6 | |
| 20260506033017 | 73 | 225 | 1.0 | 7.0 | 0.00 | 0.00 | 0.00 | 35 | 1008.4 |
| 20260506030019 | 74 | 225 | 1.0 | 5.0 | 0.00 | 0.00 | 0.00 | 33 | 1008.4 |
| 20260506023016 | 74 | 225 | 1.0 | 3.0 | 0.00 | 0.00 | 0.00 | 31 | 1008.2 |
| 20260506020018 | 75 | 0.0 | 5.0 | 0.00 | 0.00 | 0.00 | 30 | 1008.1 | |
| 20260506013017 | 75 | 0.0 | 4.0 | 0.00 | 0.00 | 0.00 | 28 | 1007.8 | |
| 20260506010016 | 76 | 0.0 | 4.0 | 0.00 | 0.00 | 0.00 | 27 | 1007.5 | |
| 20260506003016 | 77 | 225 | 1.0 | 7.0 | 0.00 | 0.00 | 0.00 | 26 | 1007.2 |
| 20260506000016 | 77 | 225 | 1.0 | 8.0 | 0.00 | 0.00 | 0.00 | 25 | 1006.9 |
| 20260505233038 | 78 | 248 | 2.0 | 9.0 | 0.00 | 0.00 | 0.00 | 25 | 1006.5 |
| 20260505230018 | 79 | 248 | 2.0 | 9.0 | 0.00 | 0.00 | 0.00 | 23 | 1006.2 |
| 20260505223016 | 80 | 248 | 1.0 | 8.0 | 0.00 | 0.00 | 0.00 | 24 | 1005.7 |
| 20260505220038 | 81 | 225 | 2.0 | 9.0 | 0.00 | 0.00 | 0.00 | 22 | 1005.3 |
| 20260505213036 | 82 | 225 | 2.0 | 10.0 | 0.00 | 0.00 | 0.00 | 23 | 1005.3 |
| 20260505210016 | 82 | 225 | 2.0 | 11.0 | 0.00 | 0.00 | 0.00 | 21 | 1005.0 |
| 20260505203116 | 83 | 225 | 3.0 | 15.0 | 0.00 | 0.00 | 0.00 | 22 | 1004.9 |
| 20260505200017 | 83 | 225 | 3.0 | 13.0 | 0.00 | 0.00 | 0.00 | 21 | 1005.7 |
| 20260505193037 | 84 | 225 | 3.0 | 12.0 | 0.00 | 0.00 | 0.00 | 23 | 1005.9 |
| 20260505190016 | 84 | 225 | 3.0 | 13.0 | 0.00 | 0.00 | 0.00 | 22 | 1006.2 |
| 20260505183016 | 84 | 225 | 3.0 | 10.0 | 0.00 | 0.00 | 0.00 | 22 | 1006.5 |
| 20260505180016 | 84 | 225 | 3.0 | 12.0 | 0.00 | 0.00 | 0.00 | 24 | 1006.9 |
| 20260505173016 | 84 | 225 | 2.0 | 11.0 | 0.00 | 0.00 | 0.00 | 25 | 1007.2 |
| 20260505170015 | 82 | 248 | 2.0 | 8.0 | 0.00 | 0.00 | 0.00 | 28 | 1007.4 |
| 20260505163037 | 81 | 203 | 2.0 | 10.0 | 0.00 | 0.00 | 0.00 | 29 | 1008.0 |
| 20260505153015 | 77 | 135 | 1.0 | 7.0 | 0.00 | 0.00 | 0.00 | 36 | 1008.8 |